Terminal Aerodrome Forecast
Issued by NWS Knoxville/Tri Cities, TN

Home | Current Version | Previous Version | Text Only | Print | Product List | Glossary On
Versions: 1 2 3 4 5 6 7 8 9 10 11 12 13 14 15 16 17 18 19 20 21 22 23 24 25 26
000
FTUS44 KMRX 290520
TAFTRI
TAF
KTRI 290520Z 2906/3006 00000KT P6SM FEW100
     FM290700 00000KT 4SM BR SCT150
     FM291000 00000KT 3SM BR SCT003
      TEMPO 2910/2912 2SM BR BKN003
     FM291300 VRB03KT P6SM SCT030
     FM292100 33009KT P6SM VCTS BKN045CB
     FM300300 00000KT P6SM SCT050 BKN100=

USA.gov is the U.S. government's official web portal to all federal, state and local government web resources and services.